Activity Log for Dec, 02 2017

Back to Activity Log Search


Incident Time Nature Address
17F146372 00:01:20 48,36 13XX WASHINGTON CENTER RD W
17F146373 00:06:42 30 TRAFFIC STOP 14XX CLINTON ST N & FOURTH ST E
17F146374 00:10:56 30 TRAFFIC STOP 93XX LIMA RD & TILL RD W
17F146375 00:18:36 30 TRAFFIC STOP 38XX REED ST & RUDISILL BLVD E
17F146376 00:24:04 33J LOCKED OUT 34XX ANTHONY BLVD N
17F146377 00:30:52 96JO 65XX FERNWOOD AVE
17F146378 00:31:37 113 SHOTS FIRED 28XX OVERLOOK DR
17F146379 00:33:53 43 DISTURBANCE 7XX LAWTON PL
17F146380 00:35:10 48,36 63XX TAYLOR ST
17F146381 00:37:28 30 TRAFFIC STOP 44XX BOWSER AVE
17F146383 00:42:07 46 DOMESTIC 29XX WEISSER PARK AVE
17F146384 00:52:54 25HS HIT SKIP 3XX COLISEUM BLVD E & COLDWATER RD
17F146385 00:57:01 30 TRAFFIC STOP 17XX PETTIT AVE E & ANTHONY BLVD S
17F146386 00:59:02 58 SHOOTING 7XX BROADWAY
17F146387 01:05:43 30 TRAFFIC STOP 23XX COLISEUM BLVD E & CRESCENT AV
17F146389 01:07:15 44LM 56XX LE STEELE BLVD
17F146388 01:11:14 30 TRAFFIC STOP 37XX LAFAYETTE ST S & GUMPPER AVE
17F146390 01:25:20 46 DOMESTIC 27XX COLISEUM BLVD W
17F146391 01:27:13 43 DISTURBANCE 25XX RIVER COVE TRL
17F146392 01:32:08 911 HANG UP 61XX NORTHHAMPTON PL
17F146393 01:35:12 48 SUSPICIOUS 54XX COVENTRY LN
17F146394 01:38:56 30 TRAFFIC STOP 5XX FULTON ST & SUPERIOR ST W
17F146395 01:43:25 30 TRAFFIC STOP 35XX CALHOUN ST S & DARROW AVE W
17F146396 01:47:54 23IP VANDALISM 12XX NUTTMAN AVE
17F146397 01:51:56 30 TRAFFIC STOP 4XX BAKER ST W & FAIRFIELD AVE
17F146398 01:57:50 46 DOMESTIC 5XX CONGRESS AVE
17F146399 01:59:08 43 DISTURBANCE 9XX EASTLAWN DR
17F146400 02:01:22 30 TRAFFIC STOP 27XX COLISEUM BLVD W & HATFIELD RD
17F146401 02:03:28 103 UNWANTED 7XX BROADWAY
17F146402 02:04:56 46,96 49XX GAYWOOD DR
17F146403 02:08:45 25 PD ACCIDENT 2XX PETTIT AVE E
17F146404 02:12:50 46,96 3XX KILLEA ST
17F146405 02:16:43 30 TRAFFIC STOP 31XX CLINTON ST N & PENN AVE
17F146406 02:23:01 46 DOMESTIC 14XX EWING ST
17F146407 02:26:48 EMS 15XX WELLS ST
17F146408 02:33:33 40 ALARM 56XX ILLINOIS RD
17F146409 02:36:41 46,96 21XX BROOKLYN AVE & EBY AVE
17F146410 02:39:03 46,96 66XX FERNWOOD AVE
17F146413 02:39:46 51 THEFT 27XX OLIVER ST
17F146412 02:43:04 39 STOLEN VEHIC 29XX EUCLID AVE
17F146411 02:44:54 30 TRAFFIC STOP 42XX LAFAYETTE ST S & MCKINNIE AVE
17F146414 02:48:23 34 TRAFF HAZARD 70XX LAFAYETTE ST S & JOHN ST
17F146416 02:53:00 EMS 57XX PORT ROYAL
17F146415 02:54:52 113 SHOTS FIRED 20XX ARDMORE AVE
17F146417 03:05:38 34 TRAFF HAZARD 37XX VANCE AVE
17F146418 03:12:32 30 TRAFFIC STOP 36XX LIMA RD
17F146420 03:29:29 113 SHOTS FIRED 17XX REED RD
17F146419 03:30:17 30 TRAFFIC STOP 3XX SECOND ST & WELLS ST
17F146421 03:32:16 25HS HIT SKIP 61XX STELLHORN RD
17F146423 03:41:24 96JO 72XX KENSINGTON DR E
17F146422 03:41:43 27 RECKLESS DRI 13XX LAFAYETTE ST S & BRACKENRIDGE
17F146424 03:44:11 41,36 10XX BETHANY LN & BITTERSWEET DR
17F146425 03:47:41 48,36 5XX LOWER HUNTINGTON RD
17F146426 03:56:59 30 TRAFFIC STOP 96XX COLDWATER RD & TILL RD E
17F146427 04:09:38 40A AUDIBLE 50XX AIRPORT EXPRESSWAY
17F146428 04:29:38 27 RECKLESS DRI 38XX LAFAYETTE ST S & RUDISILL BLV
17F146429 04:30:16 30 TRAFFIC STOP 8XX COLISEUM BLVD W & SHERMAN BLVD
17F146433 04:31:25 46,96 31XX PLAZA DR
17F146430 04:32:28 15,84 ASS URGEN 187XX COLDWATER RD & FITCH RD E
17F146431 04:35:44 44 NUISANCE 32XX DODGE AVE
17F146432 04:41:48 30 TRAFFIC STOP 12XX WHITE AVE & MAUMEE AVE
17F146435 04:49:50 48,36 101XX LIMA RD
17F146434 04:50:49 44LM 24XX ABBEY DR
17F146436 04:57:05 43 DISTURBANCE 4XX BASS ST
17F146437 04:58:16 25HS HIT SKIP 57XX BUELL DR
17F146438 05:30:55 30 TRAFFIC STOP 12XX WHITE AVE & MAUMEE AVE
17F146439 05:34:14 23,35 VAND VEH 33XX ST JOE CENTER RD
17F146442 05:45:49 103 UNWANTED 29XX SCHELE AVE
17F146440 05:54:14 48 SUSPICIOUS 65XX ALVAREZ DR
17F146441 05:57:34 25 PD ACCIDENT 25XX SPY RUN AVE & CLINTON ST N
17F146443 06:05:19 30 TRAFFIC STOP 2XX COLISEUM BLVD W & SPEEDWAY DR
17F146444 06:44:27 23,35 VAND VEH 21XX HOAGLAND AVE
17F146445 06:47:54 26 PI ACCIDENT 47XX STATE BLVD E & REED RD
17F146446 06:52:20 48,36 19XX SINCLAIR ST
17F146447 06:57:20 48 SUSPICIOUS 22XX FAIRFIELD AVE
17F146448 06:58:47 15 ASSIST 55XX OLD DOVER BLVD
17F146449 07:07:51 26 PI ACCIDENT 27XX SANDPOINT RD
17F146450 07:11:59 51JO 4XX SPRING ST
17F146451 07:15:47 15 ASSIST 312XX I 69 NB
17F146452 07:28:04 41,36 35XX HANNA ST S
17F146453 07:41:58 34 TRAFF HAZARD 11XX JEFFERSON BLVD W & COLLEGE ST
17F146454 07:47:15 21XX COLISEUM BLVD W
17F146455 07:54:47 48,36 32XX BOWSER AVE
17F146456 07:58:21 48 SUSPICIOUS 19XX BROADWAY & TAYLOR ST
17F146457 08:02:46 20 PROBLEM UNK 52XX MILLWRIGHT PL
17F146458 08:15:13 25 PD ACCIDENT 47XX COLDWATER RD & COLLINS RD E
17F146459 08:25:52 46,96 22XX RANDALLIA DR
17F146460 08:32:33 50 BURGLARY 38XX CALHOUN ST S
17F146461 08:33:22 911 HANG UP 55XX STANDISH DR
17F146465 08:36:44 17 MOTOR CHECK 28XX COLISEUM BLVD W
17F146462 08:39:10 23,35 VAND VEH 4XX WASHINGTON BLVD W
17F146463 08:43:02 40A AUDIBLE 113XX OXNARD CT
17F146464 08:49:59 40A AUDIBLE 3XX SUTTENFIELD AVE E
17F146466 08:53:29 40A AUDIBLE 14XX WALLACE ST E
17F146467 08:59:46 51 THEFT 18XX FOX POINT TRL
17F146468 09:08:59 40A AUDIBLE 47XX ILLINOIS RD
17F146469 09:17:28 47 REMOVE ITEMS 17XX HILLSIDE AVE
17F146471 09:25:25 17 MOTOR CHECK 28XX BRIAR BUSH LN
17F146470 09:37:31 23,35 VAND VEH 5XX WALLEN HILLS DR
17F146472 09:47:39 46 DOMESTIC 36XX HOLTON AVE
17F146474 09:52:38 109 DUMPING 29XX CALHOUN ST S
17F146473 09:52:56 1 MEET 58XX HATFIELD RD & WASHINGTON CENT
17F146475 09:56:57 48 SUSPICIOUS 4XX MERKLER ST
17F146476 09:57:36 50,ATTEMPTED 10XX BROADWAY
17F146477 10:03:38 23,35 VAND VEH 23XX GLENWOOD AVE
17F146478 10:07:53 40A AUDIBLE 49XX STRATFORD RD
17F146479 10:19:54 51,35 1XX JEFFERSON BLVD E & CLINTON ST
17F146480 10:23:09 48,36 42XX HANNA ST S
17F146481 10:24:45 46 DOMESTIC 21XX EDEN ST
17F146486 10:25:49 39 STOLEN VEHIC 47XX WASHINGTON BLVD E
17F146483 10:27:42 43 DISTURBANCE 7XX COLISEUM BLVD E
17F146482 10:27:51 103 UNWANTED 2XX BUTLER ST E
17F146485 10:28:44 48 SUSPICIOUS 31XX LILLIE ST
17F146484 10:32:53 40P PANIC ALARM 29XX OLIVER ST
17F146487 10:54:07 30 TRAFFIC STOP 37XX TAYLOR ST & ARDMORE AVE
17F146488 10:58:27 37 PARKING VIOL 14XX BARTHOLD ST
17F146489 10:59:08 25HS HIT SKIP 64XX AZALEA DR
17F146490 11:05:16 40A AUDIBLE 25XX CHESTNUT ST
17F146499 11:09:59 39U UNAUTHORIZE 14XX CREIGHTON AVE E & REED ST
17F146491 11:11:16 43 DISTURBANCE 33XX THURBER AVE
17F146492 11:12:51 40A AUDIBLE 28XX DUPONT RD E
17F146495 11:12:58 45 NEIGHBORHOOD 7XX DEWALD ST W
17F146493 11:14:20 51 THEFT 59XX BUNT DR
17F146496 11:14:23 50 BURGLARY 15XX WALDRON CIR
17F146494 11:14:30 40A AUDIBLE 7XX COLISEUM BLVD N
17F146498 11:19:31 51 THEFT 40XX BOWSER AVE
17F146497 11:19:43 25HS HIT SKIP 15XX GLENWOOD AVE
17F146500 11:25:04 46 DOMESTIC 9XX ONEIDA ST
17F146502 11:25:52 16,97 51XX ARCHWOOD LN
17F146501 11:26:56 39JO 20XX BROOKLYN AVE
17F146503 11:30:06 63 CONTACT 96XX GREYHAWK DR
17F146504 11:32:39 37 PARKING VIOL 17XX HOBSON RD
17F146505 11:46:22 48,36 47XX ARDEN DR
17F146506 11:47:13 47 REMOVE ITEMS 31XX LILLIE ST
17F146507 11:53:05 25 PD ACCIDENT 305XX I 69 NB & ILLINOIS RD
17F146508 11:55:00 34 TRAFF HAZARD 315XX I 69 SB
17F146509 11:57:24 39R STOLEN RECO 27XX MILLBROOK DR
17F146519 11:57:37 46 DOMESTIC 37XX ABBOTT ST
17F146510 11:58:07 40I INTRUSION 40XX WAYNE TRACE
17F146511 11:58:19 25HS HIT SKIP 40XX STATE BLVD E & INWOOD DR
17F146512 12:01:04 101 OPEN DOOR 32XX EUCLID AVE
17F146514 12:04:04 63 CONTACT 8XX FAIRFIELD AVE & WAYNE ST W
17F146513 12:06:37 51 THEFT 34XX ILLINOIS RD
17F146515 12:18:35 30 TRAFFIC STOP 9XX JEFFERSON BLVD W & UNION ST
17F146530 12:29:31 17 MOTOR CHECK 1XX WASHINGTON CENTER RD W
17F146516 12:29:40 51 THEFT 103XX ILLINOIS RD
17F146517 12:32:06 51 THEFT 49XX HOAGLAND AVE
17F146518 12:35:10 25 PD ACCIDENT 1XX COUNTRY FOREST DR
17F146520 12:39:42 30 TRAFFIC STOP 4XX JEFFERSON BLVD W & FAIRFIELD A
17F146521 12:40:04 30 TRAFFIC STOP 40XX BUELL DR & BRANNING AVE W
17F146522 12:42:33 48,36 17XX HIGH ST
17F146523 12:42:55 911 HANG UP 27XX HOBSON RD
17F146524 12:49:45 48,36 5XX REWILL DR
17F146527 12:50:27 46,96 7XX TENNESSEE AVE
17F146531 12:51:54 17 MOTOR CHECK 74XX ROSE ANN PKWY
17F146525 12:54:27 30 TRAFFIC STOP 46XX ANTHONY BLVD S
17F146528 12:56:01 48 SUSPICIOUS 68XX BLUFFTON RD
17F146529 12:58:41 48 SUSPICIOUS 4XX WILLIAMS ST W
17F146526 12:58:54 43 DISTURBANCE 19XX BROADWAY & TAYLOR ST
17F146546 13:08:21 22I JUV INVEST 13XX SPRING ST
17F146532 13:11:19 46 DOMESTIC 33XX LOGAN AVE
17F146533 13:12:40 43 DISTURBANCE 5XX KINNAIRD AVE
17F146534 13:15:49 51 THEFT 25XX BUENA VISTA DR
17F146535 13:16:33 51JO 18XX BLUFFTON RD
17F146536 13:17:37 39JO 47XX LILLIE ST & CAPITOL AVE
17F146537 13:25:11 911 HANG UP 23XX HOLTON AVE
17F146540 13:25:51 27 RECKLESS DRI 112XX US 27 S & BOSTICK RD
17F146539 13:26:16 43 DISTURBANCE 33XX COLISEUM BLVD W
17F146538 13:26:29 51,35 11XX CALHOUN ST S
17F146541 13:35:42 34 TRAFF HAZARD 12XX CALHOUN ST S & DOUGLAS AVE E
17F146543 13:39:56 63 CONTACT 5XX COLISEUM BLVD W
17F146542 13:42:44 55 FIGHT 44XX COLDWATER RD
17F146544 13:48:31 66 MENTALLY ILL 33XX THURBER AVE
17F146545 13:54:18 41 MAN DOWN 86XX BLUFFTON RD & AIRPORT EXPRESS
17F146552 14:03:51 ATL 42XX JEFFERSON BLVD W & APPLE GLEN
17F146547 14:06:06 44LM 59XX BUNT DR
17F146549 14:10:49 17 MOTOR CHECK 65XX BAYBERRY DR
17F146548 14:11:25 48 SUSPICIOUS 45XX LIMA RD
17F146550 14:15:46 129 64XX CENTERTON DR
17F146551 14:16:14 129 74XX KERN VALLEY DR
17F146554 14:22:54 22RN RUNAWAY 19XX HOBSON RD
17F146553 14:24:48 30 TRAFFIC STOP 28XX RUPP DR & COLISEUM BLVD E
17F146555 14:27:32 43 DISTURBANCE 4XX BRACKENRIDGE ST W
17F146557 14:29:58 34 TRAFF HAZARD 64XX MAYWOOD CIR
17F146556 14:30:38 75 PURSUIT 42XX HANNA ST S & MCKINNIE AVE
17F146558 14:34:19 44 NUISANCE 10XX COLISEUM BLVD N
17F146559 14:35:29 41,36 40XX REED ST
17F146560 14:36:20 33,34 1XX SUTTENFIELD AVE E & CLINTON ST
17F146561 14:36:39 911 HANG UP 44XX PLAZA DR
17F146562 14:40:26 1 MEET 1XX CREIGHTON AVE E
17F146563 14:47:14 30 TRAFFIC STOP 73XX ST JOE RD & WINDING WAY DR
17F146564 14:48:47 33J LOCKED OUT 24XX HOBSON RD
17F146565 14:50:00 40A AUDIBLE 20XX CALHOUN ST S
17F146566 14:51:23 25 PD ACCIDENT 13XX STATE BLVD W & POINSETTE DR
17F146567 15:00:45 30 TRAFFIC STOP 73XX ST JOE RD & WINDING WAY DR
17F146568 15:01:13 25 PD ACCIDENT 13XX STATE BLVD W & POINSETTE DR
17F146572 15:01:28 66 MENTALLY ILL XX MAIN ST E
17F146569 15:01:31 46,96 43XX KINGSBROOK WAY
17F146570 15:03:51 45 NEIGHBORHOOD 44XX SMITH ST
17F146576 15:06:11 11C CAGE CAR 42XX COLDWATER RD
17F146571 15:07:31 40A AUDIBLE 60XX HIGHVIEW DR
17F146573 15:09:07 25HS HIT SKIP 43XX LIMA RD & COLISEUM BLVD W
17F146574 15:09:40 30 TRAFFIC STOP 47XX STATE BLVD E & REED RD
17F146575 15:10:51 911 HANG UP 19XX CAREW ST
17F146580 15:16:42 111D DOG 45XX LAFAYETTE ST S & SHERWOOD TER
17F146577 15:17:18 30 TRAFFIC STOP 73XX ST JOE RD & WINDING WAY DR
17F146578 15:20:10 41,36 34XX MEYER RD & MOELLER RD
17F146582 15:20:16 22I JUV INVEST 88XX JEFFERSON BLVD W
17F146579 15:21:13 30 TRAFFIC STOP 52XX STELLHORN RD & WOODWAY DR
17F146581 15:21:52 101 OPEN DOOR 10XX RIVERMET AVE
17F146583 15:23:39 25 PD ACCIDENT 65XX LIMA RD & LUDWIG RD W
17F146584 15:30:39 48 SUSPICIOUS 3XX COLISEUM BLVD E
17F146588 15:31:31 28 DUI 162XX US 27 S & EMANUEL RD
17F146585 15:33:18 26 PI ACCIDENT 13XX GRIER ST & ROBINWOOD DR
17F146586 15:34:53 30 TRAFFIC STOP 73XX ST JOE RD & ROTHMAN RD
17F146587 15:36:55 40P PANIC ALARM 6XX OXFORD ST
17F146591 15:37:00 47 REMOVE ITEMS 26XX MAUMEE AVE
17F146589 15:44:40 30 TRAFFIC STOP 103XX MAYSVILLE RD
17F146590 15:46:55 30 TRAFFIC STOP 73XX ST JOE RD & WINDING WAY DR
17F146593 15:50:01 25HS HIT SKIP 43XX LIMA RD & COLISEUM BLVD W
17F146592 15:50:33 40A AUDIBLE 35XX LAKE AVE
17F146595 15:55:01 1 MEET 35XX HANNA ST S
17F146594 15:55:11 17 MOTOR CHECK 66XX ST JOE CENTER RD
17F146598 15:58:42 50,ATTEMPTED 12XX MCKEE ST
17F146596 15:59:14 46 DOMESTIC 25XX MAPLE PL
17F146597 15:59:15 103 UNWANTED 1XX GERKE AVE
17F146600 16:00:49 50 BURGLARY 8XX LAKE AVE
17F146599 16:01:43 22I JUV INVEST 28XX FAIRFIELD AVE
17F146602 16:06:22 25 PD ACCIDENT 58XX COLDWATER RD & WASHINGTON CEN
17F146603 16:08:18 22I JUV INVEST 25XX TRENTMAN AVE & FRUEHAUF DR
17F146601 16:08:41 33,34 89XX COLDWATER RD & WALLEN RD E
17F146604 16:10:27 30 TRAFFIC STOP 11XX HIGH ST & FRANKLIN AVE
17F146605 16:17:06 30 TRAFFIC STOP 73XX ST JOE RD & WINDING WAY DR
17F146610 16:17:12 42 INTOX PERSON 10XX RIVERMET AVE
17F146606 16:18:12 30 TRAFFIC STOP 50XX ST JOE RD & CANTERBURY BLVD
17F146607 16:19:21 63 CONTACT 6XX HUFFMAN ST
17F146608 16:20:58 40A AUDIBLE 91XX STELLHORN CROSSING PKWY
17F146609 16:22:27 46 DOMESTIC 51XX HOAGLAND AVE
17F146611 16:24:10 40A AUDIBLE 16XX FLORIDA DR
17F146612 16:26:17 911 HANG UP 13XX WELLS ST & THIRD ST
17F146613 16:26:19 48 SUSPICIOUS 5XX COOMBS ST
17F146614 16:26:59 22I JUV INVEST 77XX NORTHRIVER RD
17F146615 16:31:16 30 TRAFFIC STOP 91XX STELLHORN RD & WHEELOCK RD
17F146616 16:32:31 40A AUDIBLE 14XX WALLACE ST E
17F146617 16:36:47 11C CAGE CAR 104XX MAYSVILLE RD
17F146618 16:50:20 50JO 25XX CARLTON CT
17F146619 16:55:55 66 MENTALLY ILL 3XX SUPERIOR ST W
17F146620 17:03:14 63 CONTACT 69XX LIMA RD
17F146633 17:03:36 108 FOLLOWUP 18XX COOK RD E
17F146626 17:13:07 50 BURGLARY 5XX TABER ST E
17F146621 17:14:11 65T SUICIDE THR 79XX AMHERST DR
17F146627 17:21:36 23,35 VAND VEH 3XX WASHINGTON CENTER RD W
17F146623 17:24:01 48 SUSPICIOUS 4XX STATE BLVD E
17F146624 17:35:58 51JO 75XX SOUTHTOWN XING
17F146625 17:38:32 30 TRAFFIC STOP 73XX ST JOE RD & ROTHMAN RD
17F146629 17:41:55 48 SUSPICIOUS 7XX COLISEUM BLVD E
17F146628 17:42:37 15 ASSIST 21XX BROADWAY & DEWALD ST W
17F146630 17:50:33 63 CONTACT 44XX ENCINO DR
17F146631 17:52:17 22RC RECOVERY 46XX KEKIONGA DR
17F146632 17:58:40 30 TRAFFIC STOP 4XX WASHINGTON BLVD E & CLAY ST
17F146636 18:00:04 43 DISTURBANCE 36XX MCCORMICK AVE
17F146634 18:00:30 40A AUDIBLE 53XX STANDISH DR
17F146635 18:01:16 40H HOLDUP ALRM 49XX MEADOW LN
17F146637 18:07:59 30 TRAFFIC STOP 22XX ANDREW ST & STATE BLVD W
17F146638 18:08:41 26 PI ACCIDENT 34XX WINTER ST & OXFORD ST
17F146639 18:10:33 30 TRAFFIC STOP 20XX INWOOD DR & FOREST AVE
17F146640 18:14:49 30 TRAFFIC STOP 49XX STELLHORN RD
17F146641 18:16:08 103 UNWANTED 101XX LIMA RD
17F146642 18:16:29 40A AUDIBLE 4XX AUGUSTA WAY
17F146644 18:18:13 45 NEIGHBORHOOD 6XX TENNESSEE AVE
17F146643 18:18:52 30 TRAFFIC STOP 38XX ROBINWOOD DR & RUDISILL BLVD
17F146645 18:23:50 41,36 18XX SPRING ST & TYLER AVE
17F146647 18:23:54 102 THREATS 5XX MECHANIC ST
17F146646 18:25:50 46,96 48XX ANTHONY BLVD S
17F146648 18:29:36 15 ASSIST 37XX LAHMEYER RD & TRIER RD
17F146649 18:40:34 11C CAGE CAR 14XX APPLE GLEN BLVD
17F146650 18:40:58 40 ALARM 22XX MAUMEE AVE
17F146651 18:46:13 30 TRAFFIC STOP 73XX HAWKSNEST TRL & ROTHMAN RD
17F146654 18:46:41 63 CONTACT 8XX STATE BLVD W & SHERMAN BLVD
17F146652 18:46:52 51 THEFT 11XX OXFORD ST & OLIVER ST
17F146653 18:46:57 911 HANG UP 28XX LAFAYETTE ST S
17F146655 18:52:38 30 TRAFFIC STOP 13XX SHERIDAN CT & OLD MILL RD
17F146656 18:55:52 40A AUDIBLE 98XX LIMA RD
17F146658 18:56:17 101 OPEN DOOR 47XX DRUID HILLS DR
17F146657 18:56:41 33 DISABLED VEH 305XX I 69 NB
17F146659 18:59:21 28 DUI 11XX STATE BLVD E & CRESCENT AVE
17F146660 19:10:31 48 SUSPICIOUS 18XX LUMBARD ST & NEW HAVEN AVE
17F146661 19:12:09 37 PARKING VIOL 51XX REED ST & FAIRFAX AVE E
17F146662 19:16:25 37 PARKING VIOL 12XX OAK TRAIL CT
17F146663 19:21:29 43 DISTURBANCE 9XX WASHINGTON BLVD E
17F146664 19:24:31 46,96 4XX ELIZABETH ST
17F146665 19:29:20 43 DISTURBANCE 49XX ILLINOIS RD
17F146666 19:34:17 30 TRAFFIC STOP 55XX CLINTON ST N
17F146669 19:35:00 25HS HIT SKIP 59XX LIMA RD
17F146667 19:40:49 HARASSMENT 49XX LIMA RD
17F146668 19:42:11 30 TRAFFIC STOP 11XX MAUMEE AVE & UNIVERSITY ST
17F146671 19:47:15 43 DISTURBANCE 8XX CLINTON ST S & WAYNE ST E
17F146670 19:49:20 30 TRAFFIC STOP 29XX GOSHEN RD
17F146672 19:51:39 62 PARTY ARMED 42XX HANNA ST S
17F146673 19:53:43 30 TRAFFIC STOP 42XX ANTHONY BLVD S & MCKINNIE AVE
17F146674 19:55:12 33,34 32XX STELLHORN RD & HOBSON RD
17F146675 20:01:25 34 TRAFF HAZARD 66XX ILLINOIS RD & I 69 NB
17F146676 20:04:55 30 TRAFFIC STOP 47XX LIMA RD
17F146677 20:08:06 40A AUDIBLE 24XX PENNSYLVANIA ST
17F146678 20:08:43 30 TRAFFIC STOP 58XX ST JOE RD & ST JOE CENTER RD
17F146679 20:08:44 33,34 4XX JEFFERSON BLVD E & CLAY ST
17F146680 20:12:27 63 CONTACT 9XX COTTAGE AVE
17F146700 20:18:12 22RN RUNAWAY 40XX DALEWOOD DR
17F146681 20:20:22 46 DOMESTIC 6XX BUCHANAN ST & HANNA ST S
17F146682 20:24:52 43 DISTURBANCE 1XX JEFFERSON BLVD W
17F146683 20:27:48 15 ASSIST 6XX HUFFMAN ST
17F146684 20:28:59 48 SUSPICIOUS 24XX JEFFERSON BLVD W
17F146686 20:29:03 43 DISTURBANCE 27XX COLISEUM BLVD W
17F146685 20:30:47 27 RECKLESS DRI 73XX STATE BLVD E & LAHMEYER RD
17F146687 20:35:20 51,35 37XX TILLMAN RD E
17F146690 20:37:14 46 DOMESTIC 39XX OLIVER ST
17F146688 20:38:00 15,85 ASST AT O 52XX COLDWATER RD
17F146689 20:38:25 30 TRAFFIC STOP 27XX CLINTON ST N
17F146691 20:41:40 46,96 18XX CHARTWELL DR
17F146692 20:41:48 46,96 30XX LILLIE ST
17F146693 20:46:16 103 UNWANTED 13XX WASHINGTON CENTER RD W
17F146694 20:53:27 22RN RUNAWAY 7XX TENNESSEE AVE
17F146695 20:54:21 63 CONTACT 79XX WESTMINSTER DR
17F146696 21:01:50 25 PD ACCIDENT 17XX STATE BLVD E & ANTHONY BLVD N
17F146705 21:02:48 63 CONTACT 62XX DERBYSHIRE DR & MONTFORD DR
17F146697 21:04:15 46 DOMESTIC 18XX LUMBARD ST
17F146698 21:16:30 30 TRAFFIC STOP 13XX LAFAYETTE ST S & BRACKENRIDGE
17F146699 21:18:03 25 PD ACCIDENT 35XX COLISEUM BLVD W
17F146701 21:18:29 911 HANG UP 2XX WILDWOOD AVE E
17F146703 21:21:31 37 PARKING VIOL 4XX VIOLET CT
17F146702 21:24:37 48,36 104XX MAYSVILLE RD
17F146704 21:26:15 113 SHOTS FIRED 55XX WEBSTER ST
17F146707 21:38:42 103 UNWANTED 11XX STATE BLVD W
17F146709 21:39:06 37 PARKING VIOL 20XX HILLSIDE AVE
17F146708 21:40:11 96JO 12XX VENTURA LN
17F146706 21:40:18 129 10XX ABBEY PLACE BLVD
17F146713 21:44:58 46,96 22XX REED ST
17F146711 21:48:54 43,62 79XX SERENITY DR & DECATUR RD
17F146710 21:49:15 30 TRAFFIC STOP 2XX PAULDING RD W & WEBSTER ST
17F146712 21:50:15 48 SUSPICIOUS 22XX NEW HAVEN AVE
17F146714 22:06:01 129 34XX SUBURBAN DR & SOUTHBEND DR
17F146715 22:07:38 27 RECKLESS DRI 81XX LIMA RD & NORTHLAND BLVD
17F146716 22:09:18 33,34 66XX ILLINOIS RD & I 69 NB
17F146717 22:11:39 39R STOLEN RECO 44XX HANNA ST S
17F146718 22:13:28 65A SUICIDE ATT 65XX COVINGTON RD
17F146720 22:16:01 103 UNWANTED 61XX STELLHORN RD
17F146719 22:18:30 63 CONTACT 57XX COVENTRY LN
17F146721 22:20:48 129 XX MAIN ST E
17F146722 22:21:56 30 TRAFFIC STOP 78XX COLDWATER RD
17F146725 22:30:00 23 VANDALISM 31XX WINTER ST
17F146724 22:31:19 65T SUICIDE THR 7XX LOUISEDALE DR
17F146723 22:32:11 48 SUSPICIOUS 80XX PRESTON POINTE DR
17F146726 22:32:53 63 CONTACT 99XX JEFFERSON WAY
17F146727 22:38:34 40A AUDIBLE 44XX MONROE ST S
17F146729 22:40:14 911 HANG UP 4XX JEFFERSON BLVD W
17F146728 22:41:42 103 UNWANTED 3XX RUDISILL BLVD E
17F146732 22:41:49 63 CONTACT 57XX KELSO LN
17F146731 22:42:26 26 PI ACCIDENT 118XX SR 1 & POPP RD
17F146730 22:43:54 30 TRAFFIC STOP 51XX BLUFFTON RD & WOODHAVEN DR
17F146735 22:48:13 43 DISTURBANCE 25XX SOUTHWAYNE AVE
17F146733 22:49:22 50JO 62XX ST JOE CENTER RD & MAPLECREST
17F146734 22:50:57 20 PROBLEM UNK 11XX STATE BLVD W
17F146736 22:57:05 129 1XX COLUMBIA ST W
17F146737 22:57:15 61 RAPE 22XX RANDALLIA DR
17F146738 22:58:34 25 PD ACCIDENT 12XX COLUMBIA AVE
17F146739 23:00:03 104 KIDNAPPING 18XX CHARTWELL DR
17F146740 23:01:59 30 TRAFFIC STOP 34XX ANTHONY BLVD S & OXFORD ST
17F146741 23:04:18 113 SHOTS FIRED 18XX CHARTWELL DR
17F146742 23:07:50 30 TRAFFIC STOP 16XX COLISEUM BLVD S & REYNOLDS ST
17F146743 23:15:36 30 TRAFFIC STOP 72XX ARDMORE AVE & LOWER HUNTINGTO
17F146744 23:17:04 66V MENTAL VIOL 32XX WELLS ST
17F146745 23:24:05 113 SHOTS FIRED 53XX CURRY FORD LN
17F146746 23:31:06 46,62 11XX PACKARD AVE W
17F146749 23:34:03 50,ATTEMPTED 30XX WEISSER PARK AVE
17F146747 23:34:25 25 PD ACCIDENT 79XX JEFFERSON BLVD W
17F146748 23:36:11 30 TRAFFIC STOP 37XX WELLS ST & FERNHILL AVE W
17F146750 23:36:12 28 DUI 60XX JEFFERSON BLVD W & GETZ RD
17F146751 23:41:23 30 TRAFFIC STOP 9XX CREIGHTON AVE E & GAY ST
17F146752 23:48:54 48,36 58XX MASON DR
17F146753 23:48:55 48 SUSPICIOUS 59XX BUNT DR
17F146754 23:51:35 40A AUDIBLE 26XX GOSHEN RD
17F146756 23:55:21 911 HANG UP 25XX SOUTHWAYNE AVE
17F146755 23:55:39 22I JUV INVEST 13XX SPRING ST
17F146757 23:59:54 30 TRAFFIC STOP 7XX BROADWAY